Orangeburg, SC

8:56 AM EDT on May 24, 2018 (GMT -0400)
Orangeburg Municipal

Weather History for KOGB - September, 2011

Change the Weather History Date:

Wednesday, September 28, 2011

  Actual Average Record
Temperature  
Mean Temperature 78 °F 71 °F  
Max Temperature 88 °F 82 °F 95 °F (1986)
Min Temperature 68 °F 61 °F 45 °F (1985)
Degree Days  
Heating Degree Days 0 0  
Month to date heating degree days 1 0  
Since 1 July heating degree days 1 0  
Cooling Degree Days 13 7  
Month to date cooling degree days 306 288  
Year to date cooling degree days 2413 1981  
Growing Degree Days 27 (Base 50)    
Moisture  
Dew Point 68 °F    
Average Humidity 83    
Maximum Humidity 100    
Minimum Humidity 51    
Precipitation  
Precipitation 0.08 in 0.13 in 1.80 in (1966)
Month to date precipitation 4.21 3.51  
Year to date precipitation 32.24 36.82  
Sea Level Pressure  
Sea Level Pressure 29.87 in    
Wind  
Wind Speed 3 mph (WSW)    
Max Wind Speed 15 mph    
Max Gust Speed 18 mph    
Visibility 9 miles    
Events      
T = Trace of Precipitation, MM = Missing Value Source: NWS Daily Summary

Daily Weather History Graph

Daily Weather History Graph

Search for Another Location

Airport or City:

Astronomy

Sep. 28, 2011 Rise Set
Actual Time 7:15 AM EDT 7:12 PM EDT
Civil Twilight 6:50 AM EDT 7:37 PM EDT
Nautical Twilight 6:21 AM EDT 8:05 PM EDT
Astronomical Twilight 5:52 AM EDT 8:34 PM EDT
Moon 8:35 AM EDT (9/28) 7:50 PM EDT (9/28)
Length of Visible Light 12h 46m
Length of Day
11h 56m
New Moon, 2% of the Moon is Illuminated
Sep 28
New Moon
Oct 3
First Quarter
Oct 11
Full
Oct 19
Last Quarter
Oct 26
New

Hourly Weather History & Observations

Time (EDT) Temp. Heat Index Dew Point Humidity Pressure Visibility Wind Dir Wind Speed Gust Speed Precip Events Conditions
12:53 AM 68.0 °F - 66.0 °F 93% 29.90 in 8.0 mi Calm Calm - N/A   Partly Cloudy
1:53 AM 69.1 °F - 66.9 °F 93% 29.90 in 10.0 mi SSW 3.5 mph - 0.07 in   Mostly Cloudy
2:53 AM 69.1 °F - 66.9 °F 93% 29.88 in 10.0 mi Calm Calm - 0.00 in   Partly Cloudy
3:40 AM 69.8 °F - 66.2 °F 88% 29.87 in 10.0 mi Calm Calm - N/A   Mostly Cloudy
3:53 AM 70.0 °F - 68.0 °F 93% 29.87 in 10.0 mi Calm Calm - N/A   Mostly Cloudy
4:07 AM 69.8 °F - 68.0 °F 94% 29.88 in 10.0 mi SW 3.5 mph - N/A   Mostly Cloudy
4:15 AM 69.8 °F - 68.0 °F 94% 29.88 in 10.0 mi Calm Calm - N/A   Mostly Cloudy
4:29 AM 69.8 °F - 68.0 °F 94% 29.87 in 10.0 mi Calm Calm - N/A   Scattered Clouds
4:53 AM 70.0 °F - 68.0 °F 93% 29.87 in 8.0 mi Calm Calm - N/A   Scattered Clouds
5:53 AM 69.1 °F - 66.9 °F 93% 29.88 in 7.0 mi West 3.5 mph - N/A   Clear
6:53 AM 68.0 °F - 66.9 °F 96% 29.89 in 8.0 mi Calm Calm - N/A   Clear
7:53 AM 69.1 °F - 66.9 °F 93% 29.89 in 7.0 mi Calm Calm - N/A   Scattered Clouds
8:53 AM 72.0 °F - 66.9 °F 84% 29.90 in 10.0 mi West 5.8 mph - N/A   Clear
9:53 AM 75.9 °F - 68.0 °F 76% 29.91 in 10.0 mi Calm Calm - N/A   Partly Cloudy
10:53 AM 80.1 °F 82.9 °F 69.1 °F 69% 29.91 in 10.0 mi SW 5.8 mph - N/A   Clear
11:53 AM 82.9 °F 85.8 °F 68.0 °F 60% 29.90 in 10.0 mi WSW 8.1 mph - N/A   Clear
12:53 PM 84.9 °F 88.8 °F 69.1 °F 59% 29.89 in 10.0 mi West 4.6 mph - N/A   Clear
1:53 PM 84.9 °F 87.6 °F 66.9 °F 55% 29.87 in 10.0 mi SW 8.1 mph - N/A   Mostly Cloudy
2:53 PM 86.0 °F 88.8 °F 66.9 °F 53% 29.85 in 10.0 mi West 9.2 mph - N/A   Mostly Cloudy
3:53 PM 84.0 °F 86.5 °F 66.9 °F 56% 29.84 in 10.0 mi West 5.8 mph - N/A   Scattered Clouds
4:53 PM 79.0 °F - 70.0 °F 74% 29.83 in 10.0 mi West 4.6 mph - 0.01 in   Clear
5:53 PM 78.1 °F - 70.0 °F 76% 29.82 in 9.0 mi SW 12.7 mph - N/A   Scattered Clouds
6:53 PM 77.0 °F - 70.0 °F 79% 29.83 in 10.0 mi Calm Calm - N/A   Clear
7:53 PM 73.9 °F - 70.0 °F 87% 29.83 in 9.0 mi Calm Calm - N/A   Clear
8:53 PM 72.0 °F - 70.0 °F 93% 29.84 in 5.0 mi Calm Calm - N/A   Clear
9:53 PM 71.1 °F - 70.0 °F 96% 29.85 in 5.0 mi Calm Calm - N/A   Clear
10:53 PM 70.0 °F - 69.1 °F 97% 29.86 in 5.0 mi Calm Calm - N/A   Clear
11:53 PM 70.0 °F - 66.9 °F 90% 29.87 in 9.0 mi Calm Calm - N/A   Clear